This demonstration page uses our WeatherBlox Daily Observations layout. Learn more.

Left ArrowRight Arrow

36.17497, -115.13722

Hourly Observations for October 13, 2016

Temp ( °F °C ) Dew Point ( °F °C ) Humidity (%) Winds ( mph kmh ) Pressure ( in mb ) Visibility ( mi km ) Precip ( " mm )
12:53 am 00:53 Clear 67 19.4 30 -1.1 25 25 Calm 29.96 1015 10 16.0934 0 0
1:53 am 01:53 Clear 67 19.4 31 -0.6 26 26 SW 7 11 29.97 1015 10 16.0934 0 0
2:53 am 02:53 Clear 69 20.6 30 -1.1 23 23 WNW 7 11 29.96 1015 10 16.0934 0 0
3:53 am 03:53 Clear 65 18.3 28 -2.2 25 25 VRB 3 6 29.97 1015 10 16.0934 0 0
4:53 am 04:53 Clear 68 20 28 -2.2 22 22 NNW 10 17 29.98 1015 10 16.0934 0 0
5:53 am 05:53 Clear 65 18.3 28 -2.2 25 25 NW 9 15 30 1016 10 16.0934 0 0
6:53 am 06:53 Sunny 66 18.9 28 -2.2 24 24 NNW 9 15 30.01 1016 10 16.0934 0 0
7:53 am 07:53 Sunny 66 18.9 30 -1.1 26 26 NNW 7 11 30.04 1017 10 16.0934 0 0
8:53 am 08:53 Sunny 73 22.8 30 -1.1 20 20 NNW 5 7 30.05 1018 10 16.0934 0 0
9:53 am 09:53 Sunny 75 23.9 32 0 21 21 SE 5 7 30.06 1018 10 16.0934 0 0
10:53 am 10:53 Sunny 77 25 30 -1.1 18 18 ESE 6 9 30.05 1018 10 16.0934 0 0
11:53 am 11:53 Sunny 81 27.2 29 -1.7 15 15 E 7 11 30.04 1017 10 16.0934 0 0
12:53 pm 12:53 Sunny 81 27.2 29 -1.7 15 15 SE 7 11 30.01 1016 10 16.0934 0 0
1:53 pm 13:53 Sunny 84 28.9 28 -2.2 13 13 SSE 7 11 29.97 1015 10 16.0934 0 0
2:53 pm 14:53 Sunny 86 30 26 -3.3 11 11 ESE 6 9 29.94 1014 10 16.0934 0 0
3:53 pm 15:53 Sunny 87 30.6 25 -3.9 10 10 E 8 13 29.93 1013 10 16.0934 0 0
4:53 pm 16:53 Sunny 87 30.6 25 -3.9 10 10 ESE 9 15 29.91 1013 10 16.0934 0 0
5:53 pm 17:53 Sunny 85 29.4 23 -5 10 10 SE 7 11 29.91 1013 10 16.0934 0 0
6:53 pm 18:53 Clear 82 27.8 22 -5.6 11 11 ESE 9 15 29.92 1013 10 16.0934 0 0
7:53 pm 19:53 Clear 80 26.7 21 -6.1 11 11 SE 6 9 29.93 1013 10 16.0934 0 0
8:53 pm 20:53 Clear 77 25 22 -5.6 13 13 SE 3 6 29.92 1013 10 16.0934 0 0
9:53 pm 21:53 Clear 75 23.9 24 -4.4 15 15 Calm 29.93 1014 10 16.0934 0 0
10:53 pm 22:53 Clear 77 25 23 -5 13 13 SW 9 15 29.93 1014 10 16.0934 0 0
11:53 pm 23:53 Clear 75 23.9 24 -4.4 15 15 SE 8 13 29.92 1013 10 16.0934 0 0

Powered by AerisWeather